Location: Stockholm
(59.3330°N, 18.0500°E)
Time: 12:38:09
(UTC+02:00)

Oscar 11 - Visible Passes

Search period start: 27 March 2023 00:00
Search period end: 06 April 2023 00:00
Orbit: 608 x 622 km, 97.7° (Epoch: 26 March)

Date Brightness Start Highest point End Pass type
(mag) Time Alt. Az. Time Alt. Az. Time Alt. Az.
27 Mar 8.2 05:04:17 10° NNE 05:08:25 44° E 05:12:31 10° S visible
28 Mar 10.1 03:45:47 10° ENE 03:47:13 11° E 03:48:38 10° E visible
28 Mar 7.7 05:19:56 10° NNE 05:24:11 60° ESE 05:28:25 10° S visible
29 Mar 9.9 04:00:37 10° NE 04:03:09 15° E 04:05:40 10° ESE visible
29 Mar 7.2 05:35:37 10° NNE 05:39:56 79° ESE 05:44:13 10° SSW visible
30 Mar 9.7 04:15:53 10° NE 04:19:03 20° E 04:22:12 10° SE visible
31 Mar 9.3 04:31:18 10° NE 04:34:54 25° E 04:38:29 10° SSE visible
01 Apr 8.8 04:46:49 10° NNE 04:50:43 33° E 04:54:37 10° SSE visible
02 Apr 8.3 05:02:23 10° NNE 05:06:30 43° E 05:10:36 10° S visible
03 Apr 10.1 03:43:56 10° ENE 03:45:15 11° E 03:46:34 10° E visible
03 Apr 7.8 05:17:59 10° NNE 05:22:14 58° ESE 05:26:29 10° S visible
04 Apr 9.9 03:58:42 10° NE 04:01:10 15° E 04:03:37 10° ESE visible
05 Apr 9.7 04:13:54 10° NE 04:17:01 19° E 04:20:08 10° SE visible
